GFSFLT2_850_thetae_087.txt.gz
Theta_e
312 312 311 310 309 308 306 305 304 303 304 305 305 305 304 304 306 307 308 309 311 312 312 312 317 316 316
310 309 309 309 307 305 305 305 303 302 301 301 301 300 301 302 304 305 307 308 310 313 317 316 317 316 316
307 307 306 305 304 304 304 303 301 300 298 294 294 294 295 298 301 303 304 306 309 311 312 313 313 314 313
305 304 304 303 302 302 301 299 296 293 291 290 290 290 290 291 294 298 302 303 305 308 309 310 311 312 311
303 303 302 299 299 297 293 291 291 290 290 289 290 290 290 289 289 290 294 300 301 302 304 304 305 306 307
302 300 297 294 292 291 290 290 289 289 289 289 288 288 288 289 289 289 289 290 293 299 301 301 302 302 302
291 291 291 290 290 290 289 288 288 288 288 288 288 288 288 289 288 288 289 288 288 289 290 292 298 300 299
289 289 289 289 289 288 288 288 288 288 288 288 287 288 288 289 290 290 289 290 289 289 289 289 289 289 289
289 289 288 288 287 287 287 287 287 287 288 288 288 288 289 289 290 290 290 290 290 290 290 290 290 290 290
289 288 288 288 288 287 287 287 286 286 287 287 289 289 289 289 289 289 289 289 290 290 289 289 289 289 289
289 289 289 289 288 288 287 287 286 286 287 287 288 288 288 289 289 289 289 288 289 289 289 289 289 289 289
290 290 289 288 287 287 287 286 286 286 286 286 286 286 287 288 288 288 288 288 288 288 288 288 288 288 288
290 289 289 289 288 288 287 287 287 286 286 286 285 286 286 286 286 286 286 286 287 287 287 287 287 287 287
289 289 289 289 289 288 288 288 287 287 286 285 285 285 286 286 286 286 286 286 287 287 287 287 287 288 288
288 288 288 288 288 289 288 287 287 286 285 285 285 285 286 286 287 286 286 286 286 287 288 288 287 287 287
287 287 287 287 286 286 287 287 286 286 285 284 284 285 286 286 286 287 287 287 286 287 287 287 288 286 286
287 286 287 286 286 286 286 286 286 285 285 284 284 284 284 286 286 286 287 286 286 286 285 285 287 287 286

GFSFLT2_850_thetae_090.txt.gz
Theta_e
309 310 311 311 310 309 308 307 306 305 303 302 304 304 304 303 304 305 306 307 310 313 312 311 312 317 318
307 309 309 309 309 308 306 305 305 303 302 301 300 300 299 300 302 304 306 306 309 312 314 314 314 317 316
304 305 307 307 306 305 304 304 304 302 300 298 294 293 292 295 298 303 304 306 308 311 313 314 315 316 315
304 304 304 305 304 303 302 302 300 298 294 291 290 290 290 290 291 295 301 303 306 308 310 310 311 313 313
304 304 303 303 302 300 300 298 294 291 290 289 289 289 289 290 290 290 292 298 301 305 305 308 309 309 309
303 302 302 300 296 295 292 291 290 289 289 289 289 288 288 289 289 289 289 290 294 299 301 303 303 304 304
298 296 294 293 292 290 290 290 289 288 288 288 288 288 288 288 288 288 288 289 289 289 292 296 299 300 301
289 290 290 290 290 290 289 288 288 288 288 288 288 287 288 289 289 289 289 289 289 289 289 289 289 289 290
289 289 289 289 288 288 288 288 287 287 288 288 288 288 288 289 289 289 290 290 290 290 290 290 290 290 290
289 288 288 288 289 288 288 287 287 287 287 287 288 289 289 289 289 289 290 289 290 290 290 290 290 290 290
289 289 289 290 289 288 288 288 287 287 287 288 288 288 288 288 289 289 289 289 289 289 289 290 289 289 289
289 289 289 289 288 287 287 287 287 287 287 287 286 286 287 287 287 288 288 288 288 289 288 288 288 288 288
288 289 288 288 288 287 287 287 288 289 290 290 287 286 286 286 286 286 287 287 287 287 287 288 288 288 288
288 289 288 288 288 288 288 288 288 287 286 286 286 286 286 286 287 286 286 286 287 287 288 288 288 288 288
288 288 288 288 288 288 288 288 287 286 285 285 285 286 286 286 287 287 286 287 287 287 288 288 288 287 288
287 287 288 288 288 288 289 287 287 286 285 284 285 285 286 286 286 287 286 287 287 287 287 287 288 286 286
287 287 287 286 287 287 287 287 286 285 285 285 285 285 285 286 286 286 286 286 286 286 286 286 288 288 287

GFSFLT2_850_thetae_096.txt.gz
Theta_e
307 307 308 308 309 308 307 308 307 307 307 306 304 302 301 300 301 302 304 306 305 309 310 310 310 310 313
306 307 307 308 307 307 307 306 306 305 305 304 303 302 299 298 298 299 302 305 307 312 312 313 312 311 311
304 304 304 304 304 305 306 305 305 304 303 302 301 299 294 291 291 293 300 304 307 311 313 314 315 316 314
303 303 303 303 303 303 304 304 303 303 301 300 299 293 291 290 290 290 294 303 306 309 312 315 315 316 317
302 302 302 303 303 303 303 302 301 300 300 296 291 290 290 290 290 290 290 295 304 307 309 312 314 314 314
301 302 302 302 302 302 301 300 297 295 291 290 289 289 289 289 289 289 290 290 296 303 306 308 309 311 311
301 301 301 301 300 300 297 294 293 290 290 289 289 288 288 289 289 288 289 289 290 293 301 304 304 307 308
300 300 299 297 295 294 292 291 290 289 288 288 289 288 288 288 288 289 289 289 289 289 290 295 299 301 302
290 289 289 290 290 290 290 289 288 288 288 288 288 288 288 288 289 289 290 290 290 290 290 289 289 290 291
289 288 289 289 289 288 288 288 287 287 288 288 288 288 289 289 289 289 289 290 289 290 290 290 290 290 290
290 289 289 289 289 288 289 289 288 288 288 288 289 289 289 289 289 289 289 289 289 289 289 289 290 290 290
290 289 289 290 290 290 289 289 289 288 288 289 290 289 288 287 287 288 288 288 289 289 289 289 289 289 289
289 289 289 289 289 289 289 289 289 290 291 291 293 292 289 288 287 287 287 287 287 288 288 288 288 288 288
288 288 288 289 289 288 289 289 289 290 291 290 289 288 288 287 287 287 287 287 287 288 288 288 288 288 288
288 288 288 288 288 288 288 288 289 290 291 290 289 289 288 288 288 287 287 287 287 287 288 288 288 288 288
288 288 288 287 287 288 288 288 288 288 289 289 289 289 288 289 289 288 288 288 288 288 288 288 288 288 288
287 287 287 287 287 287 287 287 287 287 288 288 288 287 287 288 289 289 288 287 287 289 289 288 288 288 288

GFSFLT2_850_thetae_099.txt.gz
Theta_e
308 308 307 307 307 307 308 307 307 308 307 307 306 305 304 301 300 300 301 304 305 307 311 311 312 309 309
307 305 306 306 306 307 307 306 307 306 306 305 305 303 303 299 295 295 298 301 304 308 311 312 314 315 312
304 304 304 304 304 304 304 304 305 305 304 304 303 302 300 293 291 291 293 300 304 308 312 313 314 313 312
303 303 303 303 303 303 303 304 303 303 303 302 301 300 293 291 291 291 291 296 304 307 311 315 316 316 316
302 302 302 302 303 303 303 302 302 302 301 300 298 292 290 290 290 290 291 291 301 306 310 311 315 316 316
301 301 302 302 302 302 302 302 300 297 296 294 290 290 289 290 289 289 289 290 293 303 306 309 311 312 313
301 301 301 302 302 301 300 299 297 294 291 290 289 289 288 289 289 289 289 289 290 293 303 305 308 309 310
301 301 301 300 300 299 298 295 293 291 289 288 289 289 289 289 289 289 289 289 289 289 291 299 303 304 305
290 291 294 294 292 292 292 291 290 289 289 288 289 289 288 289 289 289 290 290 290 290 289 289 291 296 300
290 290 289 289 289 290 290 289 289 289 289 288 289 288 289 290 290 290 290 290 290 290 290 290 290 289 289
290 289 289 289 289 288 289 289 289 289 289 289 289 289 289 289 289 289 289 290 290 290 290 290 290 291 290
289 289 289 290 290 290 290 290 289 289 289 289 290 292 290 290 290 289 288 289 289 290 290 290 290 290 290
289 289 289 289 289 290 290 290 289 289 290 292 293 293 292 290 289 289 288 288 288 288 288 289 289 289 289
288 289 289 289 289 289 289 289 289 290 291 292 292 290 290 290 290 289 289 288 288 288 288 288 288 288 288
288 288 288 288 289 289 289 289 289 290 291 292 291 291 291 291 290 290 289 289 288 288 288 288 288 288 289
287 288 288 288 288 288 288 288 288 289 289 290 290 290 291 290 290 290 290 288 288 288 288 289 289 289 289
288 288 288 288 288 288 288 288 288 288 288 288 289 289 289 289 288 288 290 290 289 287 287 289 290 290 289

GFSFLT2_850_thetae_102.txt.gz
Theta_e
309 308 308 307 306 307 307 306 307 306 307 307 307 306 305 304 302 299 298 300 302 304 307 310 309 313 308
307 308 307 306 305 305 306 305 305 305 305 306 306 304 303 303 299 294 293 296 301 304 309 312 313 315 310
306 305 304 304 304 304 304 304 304 304 304 305 304 303 302 300 293 292 291 292 301 306 310 313 314 314 315
303 302 303 303 303 303 303 303 303 303 303 303 303 301 300 293 291 291 291 291 299 306 310 311 314 316 315
302 302 302 302 302 303 303 303 302 302 302 302 299 298 292 290 290 290 290 291 295 305 308 310 314 315 314
302 301 301 302 302 302 302 302 302 301 299 295 294 290 290 290 289 289 289 290 291 301 306 310 310 313 311
301 301 301 302 302 302 302 300 299 299 295 291 289 289 289 289 289 289 289 289 290 292 302 306 309 309 311
299 300 301 301 300 300 299 298 297 295 292 290 289 289 289 289 289 289 289 290 289 290 292 299 305 307 309
291 298 300 301 300 299 297 295 294 291 290 289 289 290 289 289 289 289 290 290 290 290 290 290 295 302 303
291 290 290 290 291 291 291 291 290 290 290 290 289 289 289 290 290 290 290 290 290 290 291 290 290 290 294
290 290 290 290 290 290 290 289 290 290 290 290 290 290 289 290 290 290 290 290 290 290 290 290 291 291 291
289 290 290 289 289 289 289 289 289 290 289 290 290 291 292 294 293 292 290 289 289 290 290 290 290 290 290
289 289 290 289 289 289 289 290 290 289 289 289 293 295 294 292 291 290 290 290 289 289 289 289 289 289 289
288 289 289 289 289 289 289 289 289 290 290 292 292 292 291 291 291 291 290 290 289 289 289 289 289 288 288
288 288 289 289 288 288 288 288 289 290 290 291 292 291 291 291 291 291 292 291 290 289 289 289 289 289 289
288 288 288 288 288 288 288 288 288 289 289 290 291 291 291 291 291 290 290 291 291 290 289 289 289 289 289
288 288 287 287 287 287 287 288 288 288 289 288 289 289 290 290 290 289 289 289 290 291 291 289 288 290 291

GFSFLT2_850_thetae_105.txt.gz
Theta_e
310 310 310 309 308 307 305 306 306 305 306 306 306 306 306 304 304 304 299 296 297 300 304 306 307 309 307
308 308 307 307 307 305 305 305 305 304 304 305 305 305 305 303 303 300 294 292 294 300 306 309 311 313 314
307 306 306 306 304 304 303 303 303 303 303 303 304 304 303 303 301 292 291 291 293 302 307 310 313 314 315
306 305 303 304 303 303 303 303 303 303 302 303 303 302 302 300 292 291 291 291 292 304 308 310 314 313 313
305 304 303 302 302 302 302 302 302 302 302 302 301 301 299 293 291 290 291 291 291 303 307 309 312 314 314
305 303 303 302 302 301 302 302 302 302 301 301 298 296 291 290 290 290 290 290 291 295 305 309 310 312 311
303 302 302 302 301 301 301 301 301 299 299 295 292 290 290 289 290 290 290 289 290 291 299 304 308 310 311
303 301 300 301 301 301 301 300 299 298 297 294 291 290 289 289 289 289 290 290 290 290 291 298 304 308 310
301 299 298 300 300 299 299 299 298 297 294 291 290 290 289 289 289 290 290 290 290 290 290 291 296 305 307
297 291 291 297 300 300 299 298 296 294 291 290 290 289 290 290 290 291 291 291 291 291 291 290 290 293 299
292 291 290 290 290 290 293 292 291 290 290 290 290 289 290 291 290 291 291 291 291 290 290 291 291 290 290
291 290 290 289 289 290 290 290 290 290 289 289 289 290 291 293 293 294 291 290 289 290 290 290 290 290 290
290 290 289 289 289 289 289 288 289 289 288 289 289 292 296 295 293 291 291 291 290 289 289 289 290 290 289
290 289 288 289 289 288 289 289 289 289 288 289 290 295 294 292 292 291 291 291 290 290 289 289 288 288 289
288 288 288 288 289 289 288 288 289 289 289 289 292 293 292 292 292 292 292 292 292 291 290 289 289 289 288
288 288 288 288 288 288 288 288 289 289 289 289 290 291 291 291 291 292 291 291 291 292 291 289 289 289 289
289 288 288 287 287 288 288 288 288 288 288 288 288 290 291 291 291 291 290 290 289 290 291 292 290 289 289